This demonstration page uses our WeatherBlox Daily Observations layout. Learn more.

Left ArrowRight Arrow

Hourly Observations for November 15, 2015

Temp ( °F °C ) Dew Point ( °F °C ) Humidity (%) Winds ( mph kmh ) Pressure ( in mb ) Visibility ( mi km ) Precip ( " mm )
12:53 am 00:53 Clear 53 11.7 49 9.4 86 86 ESE 10 17 30.06 1018 10 16 0.00 0.00
1:50 am 01:50 Cloudy 54 12 50 10 88 88 SE 14 22 30.09 1019 10 16 0.00 0.00
1:53 am 01:53 Cloudy 53 11.7 50 10 89 89 SE 13 20 30.04 1017 10 16 0.00 0.00
2:16 am 02:16 Cloudy 54 12 50 10 88 88 SE 14 22 30.09 1019 10 16 0.00 0.00
2:33 am 02:33 Cloudy 54 12.2 50 10 87 87 SE 15 24 30.09 1019 10 16 0.00 0.00
2:53 am 02:53 Cloudy 54 12.2 50 10 87 87 SE 13 20 30.03 1017 9 14 0.00 0.00
3:03 am 03:03 Cloudy 54 12 50 10 88 88 SE 14 22 30.09 1019 9 14 0.00 0.00
3:39 am 03:39 Mostly Cloudy 54 12.2 51 10.6 90 90 SE 12 19 30.06 1018 8 13 0.00 0.00
3:53 am 03:53 Mostly Cloudy 54 12.2 50 10 87 87 SE 12 19 30.02 1017 8 13 0.00 0.00
4:53 am 04:53 Cloudy 54 12.2 51 10.6 90 90 SE 13 20 30.01 1016 8 13 0.00 0.00
5:53 am 05:53 Cloudy 54 12.2 51 10.6 90 90 SE 10 17 30.01 1016 9 14 0.00 0.00
6:34 am 06:34 Cloudy with Light Rain 54 12 52 11 94 94 SE 13 20 30.06 1018 9 14 0.00 0.00
6:53 am 06:53 Cloudy 54 12.2 52 11.1 93 93 SE 16 26 30.01 1016 9 14 0.00 0.03
7:53 am 07:53 Cloudy with Light Rain 54 12.2 52 11.1 93 93 SE 15 24 30.04 1017 7 11 0.00 0.03
8:53 am 08:53 Mostly Cloudy 56 13.3 53 11.7 90 90 SE 12 19 30.04 1017 10 16 0.00 0.03
9:53 am 09:53 Cloudy with Light Rain 58 14.4 53 11.7 84 84 SE 10 17 30.05 1018 10 16 0.00 0.03
10:53 am 10:53 Cloudy with Light Rain 59 15 54 12.2 83 83 SSE 10 17 30.05 1018 10 16 0.00 0.03
11:53 am 11:53 Cloudy with Light Rain 59 15 55 12.8 87 87 SE 10 17 30.04 1017 9 14 0.00 0.03
12:53 pm 12:53 Mostly Sunny 61 16.1 56 13.3 84 84 SSE 15 24 29.97 1015 10 16 0.01 0.25
1:09 pm 13:09 Mostly Sunny 61 16.1 55 12.8 81 81 SE 18 30 29.97 1015 10 16 0.00 0.00
1:53 pm 13:53 Sunny 64 17.8 56 13.3 75 75 SE 15 24 29.92 1013 10 16 0.00 0.03
2:53 pm 14:53 Sunny 64 17.8 55 12.8 73 73 SE 10 17 29.90 1013 10 16 0.00 0.00
3:53 pm 15:53 Mostly Cloudy 63 17.2 55 12.8 76 76 SSE 13 20 29.89 1012 10 16 0.00 0.00
4:53 pm 16:53 Cloudy 62 16.7 56 13.3 80 80 SSE 9 15 29.92 1013 10 16 0.00 0.00
5:53 pm 17:53 Cloudy with Light Rain 61 16.1 57 13.9 87 87 SSE 9 15 29.92 1013 10 16 0.00 0.03
6:53 pm 18:53 Partly Cloudy 59 15 56 13.3 90 90 SE 16 26 29.89 1012 10 16 0.00 0.03
7:25 pm 19:25 Mostly Cloudy 59 15 56 13.3 90 90 SSE 10 17 29.91 1013 10 16 0.00 0.00
7:53 pm 19:53 Cloudy 58 14.4 56 13.3 93 93 SE 9 15 29.91 1013 10 16 0.00 0.00
8:53 pm 20:53 Cloudy 58 14.4 55 12.8 90 90 SE 10 17 29.91 1013 10 16 0.00 0.00
9:53 pm 21:53 Cloudy 58 14.4 55 12.8 90 90 SE 8 13 29.91 1013 9 14 0.00 0.00
10:23 pm 22:23 Mostly Cloudy 58 14.4 55 12.8 90 90 SE 9 15 29.91 1013 8 13 0.00 0.00
10:53 pm 22:53 Partly Cloudy 58 14.4 55 12.8 90 90 SE 9 15 29.86 1011 7 11 0.00 0.00
11:27 pm 23:27 Partly Cloudy 57 14 55 13 94 94 SE 9 15 29.88 1012 7 11 0.00 0.00
11:53 pm 23:53 Mostly Cloudy with Light Rain 58 14.4 56 13.3 93 93 SSE 10 17 29.85 1011 7 11 0.00 0.03

Powered by AerisWeather